Notices

What's New in latest Release from April 7th, 2021:

- Updated Glossary, including Speed of Maximum Gust, and Total Hourly Precipitation

- Updated national and regional climate services offices contacts and prices information

- Addition of station inventory lists for 1981-2010, 1971-2000, and 1961-1990 Normals.

If you haven't already, please take our survey and provide feedback about our website: https://eccc.sondage-survey.ca/f/LanguageSelection.aspx?s=442ca660-fcf1-47c0-95a9-59707d6fd709

Hourly Data Report for April 17, 2017

KENORA A
ONTARIO

49°47'18.000" N
94°21'47.000" W
409.70 m
6034076
71850
YQK

Download Data

Hourly Data (April 2017)
Hourly Data Report for April 17, 2017
TIME
LST
Temp Definition
°C
Dew Point Definition
°C
Rel Hum Definition
%
Precip. Amount Definition
mm

Wind Dir Definition
10's deg

Wind Spd Definition
km/h
Visibility Definition
km
Stn Press Definition
kPa
Hmdx Definition


Wind Chill Definition


Weather Definition


00:00 -1.0 -2.0 93   30 19 3.2 97.08   -6 Snow Showers
01:00 -1.6 -2.3 95   30 11 4.8 97.13   -5 Snow Showers
02:00 -2.2 -3.2 93   30 15 8.1 97.18   -7 Snow Showers
03:00 -2.6 -3.3 95   30 13 4.8 97.25   -7 Snow Showers
04:00 -3.1 -3.7 96   31 12 9.7 97.35   -8 Snow Showers
05:00 -3.1 -3.4 98   31 8 6.4 97.41   -6 Snow
06:00 -3.2 -3.6 97   30 8 4.8 97.48   -6 Snow,Fog
07:00 -3.1 -3.4 98   32 5 6.4 97.51   -5 Snow,Fog
08:00 -2.8 -3.1 98   28 9 4.0 97.61   -6 Fog
09:00 -2.1 -2.8 95   25 5 6.4 97.56   -4 Fog
10:00 -1.7 -2.8 92   25 9 8.1 97.59   -5 Fog
11:00 -0.8 -3.0 85   21 9 9.7 97.53   -4 Fog
12:00 -0.3 -2.2 87   22 15 9.7 97.58   -5 Snow,Fog
13:00 0.6 -2.0 83   23 16 24.1 97.54     LegendNANA
14:00 2.0 -2.2 74   17 17 24.1 97.46     LegendNANA
15:00 1.4 -2.4 76   20 8 24.1 97.41     Mostly Cloudy
16:00 1.7 -2.1 76   22 10 24.1 97.37     LegendNANA
17:00 2.4 -2.1 72   21 5 24.1 97.31     LegendNANA
18:00 2.4 -2.1 72   23 7 24.1 97.26     Mostly Cloudy
19:00 1.7 -2.1 76   6 3 24.1 97.18     LegendNANA
20:00 0.9 -2.0 81   2 4 24.1 97.16     LegendNANA
21:00 0.6 -1.5 86   8 7 24.1 97.11     Mostly Cloudy
22:00 0.4 -1.7 86   8 7 24.1 97.10     LegendNANA
23:00 0.3 -1.5 88   10 9 24.1 97.03     LegendNANA

Notes on Data Quality.

Legend

  • E = Estimated
  • M = Missing
  • NA = Not Available*
  • [empty] = Indicates an unobserved value
Date modified: